This demonstration page uses our WeatherBlox Daily Observations layout. Learn more.

Left ArrowRight Arrow

47.50024, -111.30081

Hourly Observations for January 19, 2018

Temp ( °F °C ) Dew Point ( °F °C ) Humidity (%) Winds ( mph kmh ) Pressure ( in mb ) Visibility ( mi km ) Precip ( " mm )
12:53 am 00:53 Cloudy 35 1.7 32 0 89 89 SSW 13 20 29.70 1006 10 16 0.00 0.00
1:53 am 01:53 Cloudy 35 1.7 31 -0.6 85 85 SSW 15 24 29.70 1006 10 16 0.00 0.00
2:53 am 02:53 Partly Cloudy 35 1.7 31 -0.6 85 85 SSW 14 22 29.70 1006 10 16 0.00 0.00
3:53 am 03:53 Cloudy 34 1.1 30 -1.1 85 85 SSW 8 13 29.70 1006 10 16 0.00 0.00
4:53 am 04:53 Partly Cloudy 34 1.1 29 -1.7 82 82 SW 10 17 29.69 1006 10 16 0.00 0.00
5:53 am 05:53 Clear 34 1.1 29 -1.7 82 82 SW 12 19 29.70 1006 10 16 0.00 0.00
6:53 am 06:53 Mostly Cloudy 35 1.7 28 -2.2 76 76 WSW 9 15 29.70 1006 10 16 0.00 0.00
7:53 am 07:53 Cloudy 34 1.1 28 -2.2 79 79 SW 8 13 29.73 1007 10 16 0.00 0.00
8:53 am 08:53 Partly Cloudy 32 0 27 -2.8 82 82 W 6 9 29.74 1007 10 16 0.00 0.00
9:53 am 09:53 Sunny 34 1.1 28 -2.2 79 79 SW 8 13 29.76 1008 10 16 0.00 0.00
10:53 am 10:53 Mostly Cloudy 38 3.3 29 -1.7 70 70 SW 10 17 29.76 1008 10 16 0.00 0.00
11:53 am 11:53 Partly Cloudy 39 3.9 27 -2.8 62 62 WSW 14 22 29.75 1007 10 16 0.00 0.00
12:53 pm 12:53 Partly Cloudy 39 3.9 24 -4.4 55 55 WSW 15 24 29.75 1008 10 16 0.00 0.00
1:53 pm 13:53 Sunny 39 3.9 23 -5 53 53 WSW 14 22 29.77 1008 10 16 0.00 0.00
2:53 pm 14:53 Sunny 41 5 19 -7.2 41 41 WSW 20 31 29.77 1008 10 16 0.00 0.00
3:53 pm 15:53 Sunny 39 3.9 19 -7.2 45 45 W 16 26 29.79 1009 10 16 0.00 0.00
4:53 pm 16:53 Sunny 35 1.7 20 -6.7 54 54 WSW 18 30 29.82 1010 10 16 0.00 0.00
5:53 pm 17:53 Clear 31 -0.6 20 -6.7 64 64 WSW 14 22 29.85 1011 10 16 0.00 0.00
6:53 pm 18:53 Clear 31 -0.6 18 -7.8 59 59 SW 15 24 29.84 1011 10 16 0.00 0.00
7:53 pm 19:53 Clear 28 -2.2 18 -7.8 66 66 SW 14 22 29.87 1011 10 16 0.00 0.00
8:53 pm 20:53 Clear 27 -2.8 18 -7.8 69 69 WSW 14 22 29.89 1012 10 16 0.00 0.00
9:53 pm 21:53 Clear 26 -3.3 18 -7.8 71 71 SW 12 19 29.90 1013 10 16 0.00 0.00
10:53 pm 22:53 Clear 27 -2.8 18 -7.8 69 69 SW 14 22 29.89 1012 10 16 0.00 0.00
11:53 pm 23:53 Clear 27 -2.8 18 -7.8 69 69 SW 14 22 29.90 1013 10 16 0.00 0.00

Powered by AerisWeather